Weather History for Istanbul / Ataturk, Turkey

Change the Weather History Date:

Friday, August 30, 2013

  Actual Average Record
Temperature  
Mean Temperature 78 °F -  
Max Temperature 83 °F 74 °F - ()
Min Temperature 73 °F 61 °F - ()
Cooling Degree Days 13    
Growing Degree Days 28 (Base 50)    
Moisture  
Dew Point 63 °F    
Average Humidity 61    
Maximum Humidity 78    
Minimum Humidity 39    
Precipitation  
Precipitation 0.00 in - - ()
Sea Level Pressure  
Sea Level Pressure 29.93 in    
Wind  
Wind Speed 11 mph ()    
Max Wind Speed 23 mph    
Max Gust Speed -    
Visibility 6.2 miles    
Events      
T = Trace of Precipitation, MM = Missing Value Source: Averaged Metar Reports

Daily Weather History Graph

Daily Weather History Graph

Search for Another Location

Airport:

Trip Planner

Search our weather history database for the weather conditions in past years. The results will help you decide how hot, cold, wet, or windy it might be!

Date:

Astronomy

Aug. 30, 2013 Rise Set
Actual Time 6:29 AM EEST 7:40 PM EEST
Civil Twilight 6:01 AM EEST 8:08 PM EEST
Nautical Twilight 5:27 AM EEST 8:42 PM EEST
Astronomical Twilight 4:51 AM EEST 9:18 PM EEST
Moon 12:50 AM EEST (8/30) 3:42 PM EEST (8/30)
Length of Visible Light 14h 07m
Length of Day
13h 11m
Waning Crescent, 32% of the Moon is Illuminated
Aug 30
Waning Crescent
Sep 5
New
Sep 12
First Quarter
Sep 19
Full
Sep 27
Last Quarter

Hourly Weather History & Observations

Time (EEST) Temp. Heat Index Dew Point Humidity Pressure Visibility Wind Dir Wind Speed Gust Speed Precip Events Conditions
12:20 AM 77.0 °F - 68.0 °F 74% 29.92 in - NE 9.2 mph - N/A   Clear
12:50 AM 77.0 °F - 68.0 °F 74% 29.92 in - NE 6.9 mph - N/A   Clear
1:20 AM 78.8 °F - 68.0 °F 69% 29.92 in - Variable 6.9 mph - N/A   Clear
1:50 AM 77.0 °F - 68.0 °F 74% 29.92 in - Variable 6.9 mph - N/A   Clear
2:20 AM 75.2 °F - 68.0 °F 78% 29.89 in - NNE 6.9 mph - N/A   Clear
2:50 AM 75.2 °F - 68.0 °F 78% 29.89 in - NNE 6.9 mph - N/A   Clear
3:00 AM 75 °F - 68 °F 74% 29.91 in 6 mi NNE 6.9 mph - -  
3:20 AM 75.2 °F - 68.0 °F 78% 29.89 in - NE 4.6 mph - N/A   Clear
3:50 AM 75.2 °F - 68.0 °F 78% 29.92 in - NNE 6.9 mph - N/A   Clear
4:20 AM 75.2 °F - 68.0 °F 78% 29.92 in - NNE 8.1 mph - N/A   Clear
4:50 AM 75.2 °F - 68.0 °F 78% 29.92 in - NNE 6.9 mph - N/A   Clear
5:20 AM 75.2 °F - 68.0 °F 78% 29.92 in - NNE 8.1 mph - N/A   Clear
5:50 AM 75.2 °F - 66.2 °F 73% 29.92 in - NNE 9.2 mph - N/A   Clear
6:20 AM 75.2 °F - 66.2 °F 73% 29.89 in - NNE 9.2 mph - N/A   Clear
6:50 AM 75.2 °F - 66.2 °F 73% 29.92 in - NNE 9.2 mph - N/A   Clear
7:20 AM 75.2 °F - 64.4 °F 69% 29.92 in - NNE 10.4 mph - N/A   Clear
7:50 AM 75.2 °F - 62.6 °F 65% 29.92 in 6.2 mi North 11.5 mph - N/A   Scattered Clouds
8:20 AM 77.0 °F - 60.8 °F 57% 29.92 in 6.2 mi North 15.0 mph - N/A   Partly Cloudy
8:50 AM 78.8 °F - 59.0 °F 51% 29.92 in 6.2 mi North 13.8 mph - N/A   Partly Cloudy
9:00 AM 78 °F - 58 °F 40% 29.92 in 6 mi North 13.8 mph - -   Scattered Clouds
9:20 AM 78.8 °F - 57.2 °F 47% 29.92 in 6.2 mi North 18.4 mph - N/A   Partly Cloudy
9:50 AM 78.8 °F - 59.0 °F 51% 29.92 in 6.2 mi NNE 18.4 mph - N/A   Partly Cloudy
10:20 AM 78.8 °F - 59.0 °F 51% 29.92 in 6.2 mi North 18.4 mph - N/A   Scattered Clouds
10:50 AM 78.8 °F - 60.8 °F 54% 29.92 in 6.2 mi North 20.7 mph - N/A   Scattered Clouds
11:20 AM 80.6 °F 81.1 °F 59.0 °F 48% 29.92 in 6.2 mi North 17.3 mph - N/A   Scattered Clouds
11:50 AM 80.6 °F 81.1 °F 59.0 °F 48% 29.92 in 6.2 mi North 23.0 mph - N/A   Scattered Clouds
12:20 PM 80.6 °F 80.8 °F 57.2 °F 45% 29.92 in 6.2 mi North 20.7 mph - N/A   Scattered Clouds
12:50 PM 82.4 °F 82.0 °F 57.2 °F 42% 29.92 in 6.2 mi North 23.0 mph - N/A   Partly Cloudy
1:20 PM 82.4 °F 82.5 °F 59.0 °F 45% 29.92 in 6.2 mi North 20.7 mph - N/A   Partly Cloudy
1:50 PM 82.4 °F 82.9 °F 60.8 °F 48% 29.92 in 6.2 mi North 16.1 mph - N/A   Partly Cloudy
2:20 PM 82.4 °F 82.9 °F 60.8 °F 48% 29.92 in 6.2 mi North 19.6 mph - N/A   Partly Cloudy
2:50 PM 82.4 °F 82.9 °F 60.8 °F 48% 29.89 in 6.2 mi North 20.7 mph - N/A   Scattered Clouds
3:00 PM 82 °F - 61 °F 39% 29.90 in 6 mi North 20.7 mph - -   Partly Cloudy
3:20 PM 80.6 °F 81.5 °F 60.8 °F 51% 29.89 in 6.2 mi North 20.7 mph - N/A   Scattered Clouds
3:50 PM 82.4 °F 82.9 °F 60.8 °F 48% 29.92 in 6.2 mi North 18.4 mph - N/A   Scattered Clouds
4:20 PM 78.8 °F - 60.8 °F 54% 29.92 in 6.2 mi North 21.9 mph - N/A   Scattered Clouds
4:50 PM 78.8 °F - 60.8 °F 54% 29.92 in 6.2 mi North 19.6 mph - N/A   Scattered Clouds
5:20 PM 78.8 °F - 62.6 °F 57% 29.92 in 6.2 mi North 17.3 mph - N/A   Scattered Clouds
5:50 PM 77.0 °F - 62.6 °F 61% 29.92 in 6.2 mi NNE 19.6 mph - N/A   Mostly Cloudy
6:20 PM 77.0 °F - 62.6 °F 61% 29.92 in 6.2 mi NNE 19.6 mph - N/A   Mostly Cloudy
6:50 PM 75.2 °F - 62.6 °F 65% 29.95 in 6.2 mi NNE 17.3 mph - N/A   Mostly Cloudy
7:20 PM 75.2 °F - 62.6 °F 65% 29.95 in 6.2 mi NNE 16.1 mph - N/A   Mostly Cloudy
7:50 PM 75.2 °F - 62.6 °F 65% 29.95 in 6.2 mi NNE 13.8 mph - N/A   Mostly Cloudy
8:20 PM 75.2 °F - 62.6 °F 65% 29.95 in 6.2 mi NNE 12.7 mph - N/A   Mostly Cloudy
8:50 PM 75.2 °F - 62.6 °F 65% 29.95 in 6.2 mi NNE 12.7 mph - N/A   Scattered Clouds
9:00 PM 75 °F - 62 °F 54% 29.96 in 6 mi NNE 12.7 mph - -   Scattered Clouds
9:20 PM 73.4 °F - 60.8 °F 65% 29.95 in 6.2 mi NNE 12.7 mph - N/A   Scattered Clouds
9:50 PM 75.2 °F - 60.8 °F 61% 29.98 in 6.2 mi Variable 9.2 mph - N/A   Scattered Clouds
10:20 PM 73.4 °F - 60.8 °F 65% 29.98 in 6.2 mi NNE 10.4 mph - N/A   Scattered Clouds
10:50 PM 73.4 °F - 60.8 °F 65% 29.98 in 6.2 mi NNE 11.5 mph - N/A   Scattered Clouds
11:20 PM 73.4 °F - 62.6 °F 69% 29.98 in 6.2 mi NNE 9.2 mph - N/A   Scattered Clouds
11:50 PM 73.4 °F - 60.8 °F 65% 29.98 in 6.2 mi NNE 10.4 mph - N/A   Scattered Clouds